Regional Weather Roundup
Issued by NWS State College, PA

Home | Current Version | Previous Version | Graphics & Text | Print | Product List | Glossary On
Versions: 1 2 3 4 5 6 7 8 9 10 11 12 13 14 15 16 17 18 19 20 21 22 23 24 25 26 27 28 29 30 31 32 33 34 35 36 37 38 39 40 41 42 43 44 45 46 47 48 49 50
000
ASUS41 KCTP 240910
RWRCTP

REGIONAL WEATHER ROUNDUP
NATIONAL WEATHER SERVICE STATE COLLEGE PA
500 AM EDT WED MAY 24 2017

Note: "fair" indicates few or no clouds below 12,000 feet with no
significant weather and/or obstructions to visibility.

* = STATION THAT DOES NOT REPORT PRECIPITATION /E.G. RAIN...SNOW...ETC/
    THUNDER OR FOG.

PAZ002>004-007>009-013>016-020>023-029>032-241000-
WESTERN PENNSYLVANIA

CITY           SKY/WX    TMP DP  RH WIND       PRES   REMARKS
ERIE           CLOUDY    58  47  66 SE8       29.66S
MEADVILLE      CLOUDY    56  49  77 CALM      29.67F
FRANKLIN*      CLOUDY    54  46  76 SE6       29.69S
NEW CASTLE     LGT RAIN  56  55  97 SE3       29.67F
BEAVER COUNTY  NOT AVBL
BUTLER*        CLOUDY    55  52  88 E6        29.68S
PITTSBURGH INT CLOUDY    58  54  86 E5        29.66S
PITTSBURGH     CLOUDY    58  50  75 NE3       29.65F
INDIANA*       NOT AVBL
LATROBE        CLOUDY    57  54  88 SE7       29.67F
WASHINGTON CO* CLOUDY    55  52  88 NE5       29.67S
$$

PAZ004>006-010>012-017>019-024>028-033>037-041-042-045-046-049>053-241000-
CENTRAL PENNSYLVANIA

CITY           SKY/WX    TMP DP  RH WIND       PRES   REMARKS
BRADFORD       CLOUDY    50  47  89 SE3       29.71F
DUBOIS         CLOUDY    53  46  77 E5        29.69F
CLEARFIELD     CLOUDY    52  48  86 NE7       29.71F
JOHNSTOWN      CLOUDY    53  50  89 SE3       29.69F
ALTOONA        CLOUDY    56  51  84 E3        29.72S
STATE COLLEGE  CLOUDY    54  48  82 N3        29.71S
WILLIAMSPORT   CLOUDY    53  49  86 CALM      29.72F
SELINSGROVE    CLOUDY    53  51  93 NW3       29.73F
FT INDIANTOWN  PTCLDY    54  54 100 CALM      29.73S
CAPITAL CITY   LGT RAIN  58  54  86 SE5       29.72S FOG
HARRISBURG     LGT RAIN  57  56  96 NE3       29.72S FOG
YORK           CLOUDY    56  56 100 CALM      29.72S FOG
$$

PAZ038>040-043-044-047-048-054-055-060>062-067>071-241000-
EASTERN PENNSYLVANIA

CITY           SKY/WX    TMP DP  RH WIND       PRES   REMARKS
SCRANTON       CLOUDY    54  49  83 E7        29.74S
MOUNT POCONO   CLOUDY    52  46  80 E6        29.74S
ALLENTOWN      LGT RAIN  56  53  90 CALM      29.73S
QUAKERTOWN*    PTSUNNY   55  55 100 CALM      29.74S
READING        CLOUDY    57  57 100 CALM      29.72S
LANCASTER      LGT RAIN  57  57 100 CALM      29.73R FOG
COATESVILLE    CLOUDY    55  55 100 CALM      29.74R FOG
POTTSTOWN      LGT RAIN  55  54  96 CALM      29.74R FOG
BLUE BELL      CLOUDY    54  54 100 CALM      29.74S
DOYLESTOWN     LGT RAIN  55  55 100 CALM      29.72S
WILLOW GROVE   NOT AVBL
NORTH PHILA    CLOUDY    58  53  84 N5        29.73S
PHILADELPHIA   CLOUDY    57  52  83 NE6       29.72S
$$




USA.gov is the U.S. government's official web portal to all federal, state and local government web resources and services.